Time,TemperatureF,DewpointF,PressureIn,WindDirection,WindDirectionDegrees,WindSpeedMPH,WindSpeedGustMPH,Humidity,HourlyPrecipIn,Conditions,Clouds,dailyrainin,SoftwareType,DateUTC
2013-03-05 00:01:00,30.0,25.0,30.01,NE,52,5.0,12.0,83,0.00,,,0.01,,2013-03-05 06:01:00,
2013-03-05 00:11:00,30.0,25.0,30.01,NE,52,5.0,12.0,83,0.00,,,0.01,,2013-03-05 06:11:00,
2013-03-05 00:22:00,30.0,25.0,30.01,East,90,5.0,14.0,83,0.00,,,0.01,,2013-03-05 06:22:00,
2013-03-05 00:32:00,31.0,26.0,30.00,ENE,69,5.0,12.0,82,0.00,,,0.01,,2013-03-05 06:32:00,
2013-03-05 00:42:00,31.0,26.0,30.00,ENE,69,5.0,12.0,82,0.00,,,0.01,,2013-03-05 06:42:00,
2013-03-05 00:52:00,31.0,26.0,30.00,ENE,58,5.0,13.0,82,0.00,,,0.01,,2013-03-05 06:52:00,
2013-03-05 01:01:00,31.0,26.0,29.99,East,82,0.0,12.0,82,0.00,,,0.01,,2013-03-05 07:01:00,
2013-03-05 01:11:00,31.0,26.0,29.99,East,82,0.0,12.0,82,0.00,,,0.01,,2013-03-05 07:11:00,
2013-03-05 01:22:00,31.0,26.0,29.99,NE,48,0.0,0.0,82,0.00,,,0.01,,2013-03-05 07:22:00,
2013-03-05 01:31:00,31.0,26.0,29.98,East,93,0.0,0.0,82,0.00,,,0.01,,2013-03-05 07:31:00,
2013-03-05 01:41:00,31.0,26.0,29.98,East,93,0.0,0.0,82,0.00,,,0.01,,2013-03-05 07:41:00,
2013-03-05 01:51:00,31.0,26.0,29.98,NE,52,0.0,0.0,82,0.00,,,0.01,,2013-03-05 07:51:00,
2013-03-05 02:02:00,31.0,26.0,29.97,East,84,0.0,0.0,82,0.00,,,0.01,,2013-03-05 08:02:00,
2013-03-05 02:11:00,31.0,26.0,29.97,East,84,0.0,0.0,82,0.00,,,0.01,,2013-03-05 08:11:00,
2013-03-05 02:21:00,31.0,26.0,29.97,ENE,78,0.0,0.0,82,0.00,,,0.01,,2013-03-05 08:21:00,
2013-03-05 02:31:00,31.0,26.0,29.96,East,94,0.0,0.0,81,0.00,,,0.01,,2013-03-05 08:31:00,
2013-03-05 02:41:00,31.0,26.0,29.96,East,94,0.0,0.0,81,0.00,,,0.01,,2013-03-05 08:41:00,
2013-03-05 02:52:00,31.0,26.0,29.96,East,93,0.0,0.0,81,0.00,,,0.01,,2013-03-05 08:52:00,
2013-03-05 03:01:00,31.0,26.0,29.95,ENE,61,0.0,0.0,80,0.00,,,0.01,,2013-03-05 09:01:00,
2013-03-05 03:11:00,31.0,26.0,29.95,ENE,61,0.0,0.0,80,0.00,,,0.01,,2013-03-05 09:11:00,
2013-03-05 03:21:00,31.0,26.0,29.95,ENE,78,0.0,0.0,80,0.00,,,0.01,,2013-03-05 09:21:00,
2013-03-05 03:31:00,31.0,26.0,29.94,ENE,58,0.0,0.0,80,0.00,,,0.01,,2013-03-05 09:31:00,
2013-03-05 03:42:00,31.0,26.0,29.94,ENE,58,0.0,0.0,80,0.00,,,0.01,,2013-03-05 09:42:00,
2013-03-05 03:52:00,31.0,26.0,29.94,East,88,0.0,0.0,80,0.00,,,0.01,,2013-03-05 09:52:00,
2013-03-05 04:01:00,31.0,26.0,29.93,ENE,73,0.0,0.0,81,0.00,,,0.01,,2013-03-05 10:01:00,
2013-03-05 04:11:00,31.0,26.0,29.93,ENE,73,0.0,0.0,81,0.00,,,0.01,,2013-03-05 10:11:00,
2013-03-05 04:21:00,31.0,26.0,29.93,East,81,0.0,0.0,82,0.00,,,0.01,,2013-03-05 10:21:00,
2013-03-05 04:32:00,31.0,27.0,29.92,ENE,64,0.0,0.0,84,0.00,,,0.01,,2013-03-05 10:32:00,
2013-03-05 04:42:00,31.0,27.0,29.92,ENE,64,0.0,0.0,84,0.00,,,0.01,,2013-03-05 10:42:00,
2013-03-05 04:52:00,31.0,27.0,29.92,East,91,0.0,0.0,85,0.00,,,0.01,,2013-03-05 10:52:00,
2013-03-05 05:01:00,31.0,27.0,29.91,ENE,58,0.0,0.0,85,0.00,,,0.01,,2013-03-05 11:01:00,
2013-03-05 05:11:00,31.0,27.0,29.91,ENE,58,0.0,0.0,85,0.00,,,0.01,,2013-03-05 11:11:00,
2013-03-05 05:22:00,31.0,27.0,29.91,ENE,67,0.0,0.0,85,0.00,,,0.01,,2013-03-05 11:22:00,
2013-03-05 05:32:00,31.0,27.0,29.91,East,83,0.0,0.0,86,0.00,,,0.01,,2013-03-05 11:32:00,
2013-03-05 05:42:00,31.0,27.0,29.91,East,83,0.0,0.0,86,0.00,,,0.01,,2013-03-05 11:42:00,
2013-03-05 05:52:00,31.0,28.0,29.91,East,81,0.0,0.0,88,0.00,,,0.01,,2013-03-05 11:52:00,
2013-03-05 06:02:00,31.0,28.0,29.91,ENE,65,0.0,0.0,88,0.00,,,0.01,,2013-03-05 12:02:00,
2013-03-05 06:12:00,31.0,28.0,29.91,ENE,65,0.0,0.0,88,0.00,,,0.01,,2013-03-05 12:12:00,
2013-03-05 06:22:00,31.0,28.0,29.91,ENE,65,0.0,0.0,90,0.00,,,0.01,,2013-03-05 12:22:00,
2013-03-05 06:32:00,30.0,28.0,29.91,ENE,70,0.0,0.0,93,0.00,,,0.01,,2013-03-05 12:32:00,
2013-03-05 06:42:00,30.0,28.0,29.91,ENE,70,0.0,0.0,93,0.00,,,0.01,,2013-03-05 12:42:00,
2013-03-05 06:52:00,30.0,28.0,29.91,East,88,0.0,0.0,93,0.00,,,0.01,,2013-03-05 12:52:00,
2013-03-05 07:02:00,30.0,28.0,29.91,NE,47,0.0,0.0,94,0.00,,,0.01,,2013-03-05 13:02:00,
2013-03-05 07:11:00,30.0,28.0,29.91,NE,47,0.0,0.0,94,0.00,,,0.01,,2013-03-05 13:11:00,
2013-03-05 07:21:00,30.0,29.0,29.91,East,91,0.0,1.0,95,0.00,,,0.01,,2013-03-05 13:21:00,
2013-03-05 07:32:00,30.0,29.0,29.91,NE,53,0.0,0.0,95,0.00,,,0.01,,2013-03-05 13:32:00,
2013-03-05 07:42:00,30.0,29.0,29.91,NE,53,0.0,0.0,95,0.00,,,0.01,,2013-03-05 13:42:00,
2013-03-05 07:52:00,30.0,29.0,29.91,NNE,28,0.0,2.0,95,0.00,,,0.01,,2013-03-05 13:52:00,
2013-03-05 08:02:00,30.0,29.0,29.91,NNE,30,0.0,0.0,95,0.00,,,0.01,,2013-03-05 14:02:00,
2013-03-05 08:11:00,30.0,29.0,29.91,NNE,30,0.0,0.0,95,0.00,,,0.01,,2013-03-05 14:11:00,
2013-03-05 08:21:00,30.0,29.0,29.92,NNE,30,0.0,0.0,95,0.00,,,0.01,,2013-03-05 14:21:00,
2013-03-05 08:32:00,31.0,30.0,29.91,NE,40,0.0,0.0,96,0.00,,,0.01,,2013-03-05 14:32:00,
2013-03-05 08:42:00,31.0,30.0,29.91,NE,40,0.0,0.0,96,0.00,,,0.01,,2013-03-05 14:42:00,
2013-03-05 08:52:00,31.0,30.0,29.90,ENE,65,0.0,0.0,96,0.00,,,0.01,,2013-03-05 14:52:00,
2013-03-05 09:01:00,31.0,30.0,29.90,ENE,69,0.0,0.0,96,0.00,,,0.01,,2013-03-05 15:01:00,
2013-03-05 09:11:00,31.0,30.0,29.90,ENE,69,0.0,0.0,96,0.00,,,0.01,,2013-03-05 15:11:00,
2013-03-05 09:21:00,31.0,30.0,29.90,ENE,71,0.0,0.0,96,0.00,,,0.01,,2013-03-05 15:21:00,
2013-03-05 09:32:00,31.0,30.0,29.89,ENE,63,0.0,0.0,96,0.00,,,0.01,,2013-03-05 15:32:00,
2013-03-05 09:42:00,31.0,30.0,29.89,ENE,63,0.0,0.0,96,0.00,,,0.01,,2013-03-05 15:42:00,
2013-03-05 09:51:00,31.0,30.0,29.88,NE,36,0.0,0.0,96,0.00,,,0.01,,2013-03-05 15:51:00,
2013-03-05 10:01:00,31.0,30.0,29.88,NE,50,0.0,0.0,96,0.00,,,0.01,,2013-03-05 16:01:00,
2013-03-05 10:11:00,31.0,30.0,29.88,NE,50,0.0,0.0,96,0.00,,,0.01,,2013-03-05 16:11:00,
2013-03-05 10:21:00,31.0,30.0,29.88,NE,55,0.0,0.0,96,0.00,,,0.01,,2013-03-05 16:21:00,
2013-03-05 10:32:00,31.0,30.0,29.87,East,91,0.0,0.0,96,0.00,,,0.01,,2013-03-05 16:32:00,
2013-03-05 10:42:00,31.0,30.0,29.87,East,91,0.0,0.0,96,0.00,,,0.01,,2013-03-05 16:42:00,
2013-03-05 10:51:00,32.0,31.0,29.87,ENE,68,0.0,0.0,96,0.00,,,0.01,,2013-03-05 16:51:00,
2013-03-05 11:01:00,32.0,31.0,29.86,ENE,76,0.0,0.0,96,0.00,,,0.01,,2013-03-05 17:01:00,
2013-03-05 11:11:00,32.0,31.0,29.86,ENE,76,0.0,0.0,96,0.00,,,0.01,,2013-03-05 17:11:00,
2013-03-05 11:21:00,32.0,31.0,29.86,ESE,107,0.0,0.0,96,0.00,,,0.01,,2013-03-05 17:21:00,
2013-03-05 11:32:00,32.0,31.0,29.85,ENE,57,0.0,0.0,96,0.00,,,0.01,,2013-03-05 17:32:00,
2013-03-05 11:42:00,32.0,31.0,29.85,ENE,57,0.0,0.0,96,0.00,,,0.01,,2013-03-05 17:42:00,
2013-03-05 11:52:00,32.0,31.0,29.85,NE,55,0.0,0.0,96,0.00,,,0.01,,2013-03-05 17:52:00,
2013-03-05 12:02:00,32.0,31.0,29.85,NE,50,0.0,0.0,96,0.00,,,0.01,,2013-03-05 18:02:00,
2013-03-05 12:11:00,32.0,31.0,29.85,NE,50,0.0,0.0,96,0.00,,,0.01,,2013-03-05 18:11:00,
2013-03-05 12:22:00,32.0,31.0,29.85,ENE,69,0.0,0.0,96,0.00,,,0.01,,2013-03-05 18:22:00,
2013-03-05 12:32:00,31.0,30.0,29.85,ENE,59,0.0,0.0,96,0.00,,,0.01,,2013-03-05 18:32:00,
2013-03-05 12:42:00,31.0,30.0,29.85,ENE,59,0.0,0.0,96,0.00,,,0.01,,2013-03-05 18:42:00,
2013-03-05 12:52:00,31.0,30.0,29.84,ENE,62,0.0,0.0,96,0.00,,,0.01,,2013-03-05 18:52:00,
2013-03-05 13:01:00,31.0,30.0,29.84,ENE,76,0.0,0.0,96,0.00,,,0.01,,2013-03-05 19:01:00,
2013-03-05 13:11:00,31.0,30.0,29.84,ENE,76,0.0,0.0,96,0.00,,,0.01,,2013-03-05 19:11:00,
2013-03-05 13:21:00,31.0,30.0,29.84,NE,38,0.0,0.0,96,0.00,,,0.01,,2013-03-05 19:21:00,
2013-03-05 13:32:00,30.0,29.0,29.84,NE,52,0.0,0.0,96,0.00,,,0.01,,2013-03-05 19:32:00,
2013-03-05 13:42:00,30.0,29.0,29.84,NE,52,0.0,0.0,96,0.00,,,0.01,,2013-03-05 19:42:00,
2013-03-05 13:51:00,31.0,30.0,29.84,NE,46,2.0,5.0,96,0.00,,,0.01,,2013-03-05 19:51:00,
2013-03-05 14:01:00,30.0,29.0,29.83,ENE,63,3.0,6.0,96,0.00,,,0.01,,2013-03-05 20:01:00,
2013-03-05 14:11:00,30.0,29.0,29.84,NE,39,3.0,9.0,96,0.00,,,0.01,,2013-03-05 20:11:00,
2013-03-05 14:21:00,30.0,29.0,29.84,NE,39,3.0,9.0,96,0.00,,,0.01,,2013-03-05 20:21:00,
2013-03-05 14:32:00,30.0,29.0,29.84,NE,35,3.0,7.0,96,0.00,,,0.01,,2013-03-05 20:32:00,
2013-03-05 14:41:00,30.0,29.0,29.84,NE,35,3.0,7.0,96,0.00,,,0.01,,2013-03-05 20:41:00,
2013-03-05 14:52:00,30.0,29.0,29.84,NE,47,3.0,8.0,96,0.00,,,0.01,,2013-03-05 20:52:00,
2013-03-05 15:02:00,30.0,29.0,29.85,NE,40,2.0,8.0,96,0.00,,,0.01,,2013-03-05 21:02:00,
2013-03-05 15:11:00,30.0,29.0,29.85,NE,40,2.0,8.0,96,0.00,,,0.01,,2013-03-05 21:11:00,
2013-03-05 15:21:00,30.0,29.0,29.85,NE,44,3.0,6.0,96,0.00,,,0.01,,2013-03-05 21:21:00,
2013-03-05 15:32:00,30.0,29.0,29.86,North,354,0.0,6.0,96,0.00,,,0.01,,2013-03-05 21:32:00,
2013-03-05 15:42:00,30.0,29.0,29.86,North,354,0.0,6.0,96,0.00,,,0.01,,2013-03-05 21:42:00,
2013-03-05 15:52:00,30.0,29.0,29.87,NE,37,0.0,0.0,96,0.00,,,0.01,,2013-03-05 21:52:00,
2013-03-05 16:01:00,30.0,29.0,29.87,NNE,16,0.0,1.0,96,0.00,,,0.01,,2013-03-05 22:01:00,
2013-03-05 16:11:00,30.0,29.0,29.87,NNE,16,0.0,1.0,96,0.00,,,0.01,,2013-03-05 22:11:00,
2013-03-05 16:21:00,29.0,28.0,29.88,NNE,14,0.0,0.0,96,0.00,,,0.01,,2013-03-05 22:21:00,
2013-03-05 16:32:00,29.0,28.0,29.89,NNE,29,0.0,0.0,96,0.00,,,0.01,,2013-03-05 22:32:00,
2013-03-05 16:41:00,29.0,28.0,29.89,NNE,29,0.0,0.0,96,0.00,,,0.01,,2013-03-05 22:41:00,
2013-03-05 16:52:00,29.0,28.0,29.89,NNE,20,0.0,0.0,96,0.00,,,0.01,,2013-03-05 22:52:00,
2013-03-05 17:01:00,29.0,28.0,29.90,North,6,0.0,0.0,96,0.00,,,0.00,,2013-03-05 23:01:00,
2013-03-05 17:11:00,29.0,28.0,29.90,North,6,0.0,0.0,96,0.00,,,0.00,,2013-03-05 23:11:00,
2013-03-05 17:21:00,29.0,28.0,29.91,NNE,19,0.0,0.0,96,0.00,,,0.00,,2013-03-05 23:21:00,
2013-03-05 17:32:00,28.0,27.0,29.92,North,350,0.0,0.0,96,0.00,,,0.00,,2013-03-05 23:32:00,
2013-03-05 17:42:00,28.0,27.0,29.92,North,350,0.0,0.0,96,0.00,,,0.00,,2013-03-05 23:42:00,
2013-03-05 17:52:00,28.0,27.0,29.93,NNW,327,0.0,0.0,96,0.00,,,0.00,,2013-03-05 23:52:00,
2013-03-05 18:01:00,28.0,27.0,29.94,North,356,0.0,0.0,96,0.00,,,0.00,,2013-03-06 00:01:00,
2013-03-05 18:11:00,28.0,27.0,29.94,North,356,0.0,0.0,96,0.00,,,0.00,,2013-03-06 00:11:00,
2013-03-05 18:21:00,27.0,26.0,29.94,North,355,0.0,0.0,96,0.00,,,0.00,,2013-03-06 00:21:00,
2013-03-05 18:32:00,27.0,26.0,29.95,NNE,14,0.0,0.0,96,0.00,,,0.00,,2013-03-06 00:32:00,
2013-03-05 18:42:00,27.0,26.0,29.95,NNE,14,0.0,0.0,96,0.00,,,0.00,,2013-03-06 00:42:00,
2013-03-05 18:52:00,27.0,26.0,29.96,NW,323,0.0,0.0,96,0.00,,,0.00,,2013-03-06 00:52:00,
2013-03-05 19:02:00,27.0,26.0,29.96,NW,304,0.0,0.0,96,0.00,,,0.00,,2013-03-06 01:02:00,
2013-03-05 19:11:00,27.0,26.0,29.96,NW,304,0.0,0.0,96,0.00,,,0.00,,2013-03-06 01:11:00,
2013-03-05 19:21:00,27.0,26.0,29.96,NW,319,0.0,0.0,96,0.00,,,0.00,,2013-03-06 01:21:00,
2013-03-05 19:32:00,27.0,26.0,29.97,NNW,342,0.0,0.0,96,0.00,,,0.00,,2013-03-06 01:32:00,
2013-03-05 19:42:00,27.0,26.0,29.97,NNW,342,0.0,0.0,96,0.00,,,0.00,,2013-03-06 01:42:00,
2013-03-05 19:51:00,27.0,26.0,29.97,NW,322,0.0,0.0,96,0.00,,,0.00,,2013-03-06 01:51:00,
2013-03-05 20:01:00,27.0,26.0,29.98,North,355,0.0,0.0,96,0.00,,,0.00,,2013-03-06 02:01:00,
2013-03-05 20:11:00,27.0,26.0,29.98,North,355,0.0,0.0,96,0.00,,,0.00,,2013-03-06 02:11:00,
2013-03-05 20:22:00,27.0,26.0,29.98,North,351,0.0,0.0,96,0.00,,,0.00,,2013-03-06 02:22:00,
2013-03-05 20:32:00,27.0,26.0,29.99,NW,321,0.0,0.0,96,0.00,,,0.00,,2013-03-06 02:32:00,
2013-03-05 20:42:00,27.0,26.0,29.99,NW,321,0.0,0.0,96,0.00,,,0.00,,2013-03-06 02:42:00,
2013-03-05 20:52:00,27.0,26.0,29.99,NNW,342,0.0,0.0,96,0.00,,,0.00,,2013-03-06 02:52:00,
2013-03-05 21:01:00,27.0,26.0,30.00,North,5,0.0,0.0,96,0.00,,,0.00,,2013-03-06 03:01:00,
2013-03-05 21:11:00,27.0,26.0,30.00,North,5,0.0,0.0,96,0.00,,,0.00,,2013-03-06 03:11:00,
2013-03-05 21:22:00,26.0,25.0,30.01,NNW,327,0.0,0.0,96,0.00,,,0.00,,2013-03-06 03:22:00,
2013-03-05 21:32:00,26.0,25.0,30.02,North,354,0.0,0.0,95,0.00,,,0.00,,2013-03-06 03:32:00,
2013-03-05 21:42:00,26.0,25.0,30.02,North,354,0.0,0.0,95,0.00,,,0.00,,2013-03-06 03:42:00,
2013-03-05 21:52:00,26.0,25.0,30.02,NNW,335,0.0,0.0,95,0.00,,,0.00,,2013-03-06 03:52:00,
2013-03-05 22:02:00,26.0,25.0,30.03,North,350,0.0,0.0,95,0.00,,,0.00,,2013-03-06 04:02:00,
2013-03-05 22:11:00,26.0,25.0,30.03,North,350,0.0,0.0,95,0.00,,,0.00,,2013-03-06 04:11:00,
2013-03-05 22:21:00,26.0,25.0,30.03,NNW,333,0.0,0.0,95,0.00,,,0.00,,2013-03-06 04:21:00,
2013-03-05 22:32:00,26.0,25.0,30.04,NNE,28,0.0,0.0,95,0.00,,,0.00,,2013-03-06 04:32:00,
2013-03-05 22:41:00,26.0,25.0,30.04,NNE,28,0.0,0.0,95,0.00,,,0.00,,2013-03-06 04:41:00,
2013-03-05 22:52:00,26.0,25.0,30.05,North,359,0.0,0.0,95,0.00,,,0.00,,2013-03-06 04:52:00,
2013-03-05 23:02:00,26.0,25.0,30.05,North,359,0.0,0.0,95,0.00,,,0.00,,2013-03-06 05:02:00,
2013-03-05 23:11:00,26.0,25.0,30.05,North,359,0.0,0.0,95,0.00,,,0.00,,2013-03-06 05:11:00,
2013-03-05 23:22:00,26.0,25.0,30.06,WNW,298,0.0,0.0,95,0.00,,,0.00,,2013-03-06 05:22:00,
2013-03-05 23:32:00,26.0,25.0,30.06,NNE,28,0.0,0.0,94,0.00,,,0.00,,2013-03-06 05:32:00,
2013-03-05 23:42:00,26.0,25.0,30.06,NNE,28,0.0,0.0,94,0.00,,,0.00,,2013-03-06 05:42:00,
2013-03-05 23:52:00,26.0,25.0,30.06,WNW,296,0.0,0.0,94,0.00,,,0.00,,2013-03-06 05:52:00,